Regional Weather Roundup
Issued by NWS

Home | Current Version | Previous Version | Graphics & Text | Print | Product List | Glossary Off
Versions: 1 2 3 4 5 6 7 8 9 10 11 12 13 14 15 16 17 18 19 20 21 22 23 24 25 26 27 28 29 30 31 32 33 34 35 36 37 38 39 40 41 42 43 44 45 46 47 48 49 50

000
ASUS43 KMKX 031211
RWRWI

WISCONSIN REGIONAL WEATHER ROUNDUP
NATIONAL WEATHER SERVICE MILWAUKEE/SULLIVAN WI
600 AM CST TUE MAR 03 2015

NOTE: "FAIR" INDICATES FEW OR NO CLOUDS BELOW 12,000 FEET WITH NO
SIGNIFICANT WEATHER AND/OR OBSTRUCTIONS TO VISIBILITY.

WIZ001-002-006>008-014>016-023>028-031300-
NORTHWEST WISCONSIN

CITY           SKY/WX    TMP DP  RH WIND       PRES   REMARKS
SUPERIOR ARPT  LGT SNOW  21  19  91 SW8       29.78F WCI  12
6HR MIN TEMP:  21; 6HR MAX TEMP:  23;

ASHLAND        LGT SNOW  21  17  84 S6        29.81F FOG     WCI  13
6HR MIN TEMP:  20; 6HR MAX TEMP:  23; 6HR PCP: TRACE;

HAYWARD        CLOUDY    20  13  74 S6        29.78F WCI  12
6HR MIN TEMP:  20; 6HR MAX TEMP:  21; 6HR PCP: TRACE;

SIREN          CLOUDY    21  13  73 SE3       29.77F
6HR MIN TEMP:  20; 6HR MAX TEMP:  22;

CUMBERLAND     CLOUDY    19  14  79 SE8       29.75F WCI   9
RICE LAKE      CLOUDY    21  16  81 SE9       29.79F WCI  10
6HR MIN TEMP:  19; 6HR MAX TEMP:  22;

CHETEK         CLOUDY    21  15  78 SE8       29.78F WCI  11
6HR MIN TEMP:  19; 6HR MAX TEMP:  22;

LADYSMITH      CLOUDY    21  16  79 SE8       29.81F WCI  12
6HR MIN TEMP:  20; 6HR MAX TEMP:  22;

EAU CLAIRE     CLOUDY    22  14  71 SE6       29.79F WCI  14
6HR MIN TEMP:  20; 6HR MAX TEMP:  23; 6HR PCP: TRACE;

MENOMONIE      CLOUDY    23  15  74 E5        29.79F WCI  16
6HR MIN TEMP:  21; 6HR MAX TEMP:  23;

NEW RICHMOND   CLOUDY    22  13  68 SE6       29.76F WCI  14
6HR MIN TEMP:  20; 6HR MAX TEMP:  22;

OSCEOLA        CLOUDY    23  14  69 SE5       29.79F WCI  16
6HR MIN TEMP:  20; 6HR MAX TEMP:  23;

$$

WIZ003>005-009-010-017-018-031300-
NORTH CENTRAL WISCONSIN

CITY           SKY/WX    TMP DP  RH WIND       PRES   REMARKS
MANITOWISH WTR CLOUDY    17  14  88 S8        29.78F WCI   7
6HR MIN TEMP:  16; 6HR MAX TEMP:  18;

ARBOR VITAE    CLOUDY    19  15  83 S6        29.79F WCI  11
6HR MIN TEMP:  19; 6HR MAX TEMP:  22;

WOODRUFF       CLOUDY    19  15  83 S6        29.79F WCI  11
6HR MIN TEMP:  19; 6HR MAX TEMP:  22;

RHINELANDER    CLOUDY    18  13  80 SE5       29.81F WCI  11
6HR MIN TEMP:  18; 6HR MAX TEMP:  21; 6HR PCP: TRACE;

EAGLE RIVER    CLOUDY    18  13  81 S5        29.80F WCI  11
6HR MIN TEMP:  18; 6HR MAX TEMP:  20;

LAND O LAKES   CLOUDY    18  14  84 S6        29.80F WCI  10
6HR MIN TEMP:  18; 6HR MAX TEMP:  19;

PHILLIPS       CLOUDY    19  14  82 SE6       29.78F WCI  10
6HR MIN TEMP:  18; 6HR MAX TEMP:  20;

TOMAHAWK       CLOUDY    19  15  84 CALM      29.81F
6HR MIN TEMP:  19; 6HR MAX TEMP:  20;

MEDFORD        CLOUDY    19  14  80 SE7       29.79F WCI  10
6HR MIN TEMP:  19; 6HR MAX TEMP:  20;

MERRILL        CLOUDY    20  15  82 SE5       29.83F WCI  13
6HR MIN TEMP:  20; 6HR MAX TEMP:  22;

$$

WIZ029-030-035-036-043>047-031300-
CENTRAL WISCONSIN

CITY           SKY/WX    TMP DP  RH WIND       PRES   REMARKS
WAUSAU         CLOUDY    20  15  81 SE8       29.82F WCI  10
6HR MIN TEMP:  20; 6HR MAX TEMP:  23; 6HR PCP: TRACE;

MOSINEE        CLOUDY    19  18  93 SE8       29.85F WCI   9
MARSHFIELD     CLOUDY    22  14  71 SE9       29.81F WCI  12
6HR MIN TEMP:  21; 6HR MAX TEMP:  24; 6HR PCP: TRACE;

STEVENS POINT  CLOUDY    20  14  77 SE6       29.85F WCI  12
6HR MIN TEMP:  19; 6HR MAX TEMP:  22;

WAUPACA        CLOUDY    25  16  69 SE7       29.89F WCI  17
6HR MIN TEMP:  24; 6HR MAX TEMP:  26;

WAUTOMA        CLOUDY    24  16  71 SE6       29.89F WCI  17
6HR MIN TEMP:  23; 6HR MAX TEMP:  24; 6HR PCP: TRACE;

WISC RAPIDS    CLOUDY    22  13  68 S9        29.85F WCI  12
6HR MIN TEMP:  21; 6HR MAX TEMP:  22; 6HR PCP: TRACE;

CAMP DOUGLAS   MIX PCPN  23  19  86 SE10      29.82F WCI  12
6HR MIN TEMP:  23; 6HR MAX TEMP:  24; 6HR PCP: TRACE;

$$

WIZ011>013-019>022-031-037>040-048>050-031300-
NORTHEAST WISCONSIN

CITY           SKY/WX    TMP DP  RH WIND       PRES   REMARKS
ANTIGO         CLOUDY    18  16  90 SE12      29.83F WCI   5
6HR MIN TEMP:  18; 6HR MAX TEMP:  19;

SHAWANO        CLOUDY    24  19  78 SE3       29.91F
6HR MIN TEMP:  23; 6HR MAX TEMP:  26;

OCONTO         CLOUDY    22  20  91 S3        29.94F
6HR MIN TEMP:  22; 6HR MAX TEMP:  24;

STURGEON BAY   CLOUDY    25  21  86 S9        29.95F WCI  15
6HR MIN TEMP:  21; 6HR MAX TEMP:  25;

GREEN BAY      CLOUDY    25  18  74 S9        29.93F WCI  15
6HR MIN TEMP:  22; 6HR MAX TEMP:  25; 6HR PCP:  0.05;

MANITOWOC      CLOUDY    29  23  78 S18       29.95F WCI  16
6HR MIN TEMP:  23; 6HR MAX TEMP:  29;

APPLETON       CLOUDY    23  16  74 SE9       29.92F WCI  13
CLINTONVILLE   CLOUDY    23  18  80 SE9       29.90F WCI  13
OSHKOSH        CLOUDY    24  15  68 S9        29.91F WCI  14
6HR MIN TEMP:  23; 6HR MAX TEMP:  24; 6HR PCP: TRACE;

$$

WIZ032>034-041-042-053>061-031300-
SOUTHWEST WISCONSIN

CITY           SKY/WX    TMP DP  RH WIND       PRES   REMARKS
LA CROSSE      CLOUDY    25  18  74 SE12      29.81F WCI  14
6HR MIN TEMP:  25; 6HR MAX TEMP:  26; 6HR PCP: TRACE;

SPARTA         CLOUDY    24  16  72 SE5       29.83F WCI  18
6HR MIN TEMP:  24; 6HR MAX TEMP:  24;

VIROQUA        CLOUDY    22  20  92 SE10      29.78F WCI  11
6HR MIN TEMP:  22; 6HR MAX TEMP:  23;

BOSCOBEL       LGT SNOW  25  20  81 VRB3      29.83F
6HR MIN TEMP:  25; 6HR MAX TEMP:  26; 6HR PCP: TRACE;

PRAIRIE DU CHI MIX PCPN  24  21  87 SE7       29.81F WCI  16
6HR MIN TEMP:  24; 6HR MAX TEMP:  25;

PLATTEVILLE    CLOUDY    24  22  92 E13       29.81F WCI  12
6HR MIN TEMP:  23; 6HR MAX TEMP:  25;

$$

WIZ056-057-062-063-064-067-068-031300-
SOUTH CENTRAL WISCONSIN

CITY           SKY/WX    TMP DP  RH WIND       PRES   REMARKS
REEDSBURG      LGT SNOW  23  18  82 SE6       29.83F WCI  15
6HR MIN TEMP:  23; 6HR MAX TEMP:  24;

BARABOO/DELLS  LGT SNOW  23  17  78 SE8       29.84F WCI  14
6HR MIN TEMP:  23; 6HR MAX TEMP:  24;

LONE ROCK      CLOUDY    24  19  81 SE12      29.83F HAZE    WCI  13
6HR MIN TEMP:  24; 6HR MAX TEMP:  26; 6HR PCP: TRACE;

MINERAL POINT  LGT SNOW  27  23  86 SE9       29.80F WCI  17
MADISON        LGT SNOW  23  19  85 SE13      29.88F FOG     WCI  11
6HR MIN TEMP:  23; 6HR MAX TEMP:  25; 6HR PCP:  0.02;

MIDDLETON      CLOUDY    25  20  83 SE10      29.87F WCI  15
6HR MIN TEMP:  25; 6HR MAX TEMP:  26;

WATERTOWN      LGT SNOW  23  22  96 SE10      29.91F WCI  12
6HR MIN TEMP:  23; 6HR MAX TEMP:  25;

MONROE         LGT SNOW  23  23 100 SE14G20   29.82F WCI  11
JANESVILLE     LGT SNOW  27  25  93 SE7       29.90F VSB 1   WCI  19
$$

WIZ051-052-058>065-066-070>072-031300-
SOUTHEAST WISCONSIN

CITY           SKY/WX    TMP DP  RH WIND       PRES   REMARKS
MILWAUKEE      LGT SNOW  25  21  85 S13       29.95F VSB 3/4 WCI  14
6HR MIN TEMP:  25; 6HR MAX TEMP:  28; 6HR PCP:  0.02;

WAUKESHA       SNOW      23  19  86 S10       29.95F VSB 1/2 WCI  12
MILWAUKEE/TIMM LGT SNOW  27  21  80 S12       29.98F WCI  16
RACINE         SNOW      26  23  88 S16       29.97F VSB 1/2 WCI  14
6HR MIN TEMP:  26; 6HR MAX TEMP:  28; 6HR PCP: TRACE;

BURLINGTON     LGT SNOW  22  20  93 SE8       29.93F WCI  13
6HR MIN TEMP:  22; 6HR MAX TEMP:  24; 6HR PCP:  0.02;

KENOSHA        SNOW      25  22  88 SE13      29.96F VSB 1/2 WCI  14
6HR MIN TEMP:  25; 6HR MAX TEMP:  27; 6HR PCP:  0.01;

FOND DU LAC    LGT SNOW  24  17  74 S13       29.92F WCI  12
6HR MIN TEMP:  24; 6HR MAX TEMP:  25; 6HR PCP: TRACE;

SHEBOYGAN      CLOUDY    27  20  75 S13       29.95F WCI  16
6HR MIN TEMP:  22; 6HR MAX TEMP:  27; 6HR PCP:  0.01;

WEST BEND      LGT SNOW  25  19  80 SE6       29.93F WCI  18
JUNEAU         LGT SNOW  23  19  84 SE13      29.91F WCI  11
6HR MIN TEMP:  23; 6HR MAX TEMP:  24;

$$

LSZ147-162-031300-
LAKE SUPERIOR

STATION/POSITION TIME  TEMP    WIND        PRES    WAVE
                       AIR SEA DIR/SP/G            HT/PER
                 (UTC) (F)     (DEG/KT/KT) (MB)    (FT/S)
DEVILS ISLAND    1200   20     180/  7/  9 1010.1F
PORT WING        1100   22     170/ 10/ 13 1009.8F
SAXON HARBOR     1100   23      CALM  /  9 1010.5F
$$

LMZ867-665-643>646-031300-
LAKE MICHIGAN

STATION/POSITION TIME  TEMP    WIND        PRES    WAVE


USA.gov is the U.S. government's official web portal to all federal, state and local government web resources and services.